User: anonymous   Login
Location: �clusier
(49.9361°N, 2.7869°E)
Time: 23:56:35
(UTC+00:00)
Language:

Cosmos 2333 Rocket - Orbit

View from above orbital plane
View from above orbital plane
View from above satellite
View from above satellite

Ground track
Ground track

The orbit data is extracted from the following two-line orbital elements,

1 24298U 96051B   21259.44595292 -.00000192  00000-0 -77392-4 0  9991
2 24298  70.8266  28.9991 0014045  27.5842 332.6020 14.12418012290748
Epoch (UTC): 16 September 2021 10:42:10
Eccentricity: 0.0014045
inclination: 70.8266°
perigee height: 841 km
apogee height: 861 km
right ascension of ascending node: 28.9991°
argument of perigee: 27.5842°
revolutions per day: 14.12418012
mean anomaly at epoch: 332.6020°
orbit number at epoch: 29074

The dashed part of the orbit path shows where the satellite is in the earth's shadow,  

DLR